• In Deutschland
  • Länderverzeichnis
  • Für 7 Tage
  • Wassertemperatur
  • Satellitenkarten
  • Wetterkarte
  • Widgets
  • user-avatar
    Anmelden

    Stündliche Wetter Schmallenberg

    Heute, 22 Juni, Freitag

    Zeit Temperatur Niederschläge Wind Luftdruck Luftfeuchtigkeit
    00:00 +7°C° 0 mm 3 m/S 723 mmHg 79%
    01:00 +5°C° 0 mm 3 m/S 723 mmHg 80%
    02:00 +5°C° 0 mm 4 m/S 723 mmHg 81%
    03:00 +6°C° 0 mm 4 m/S 723 mmHg 81%
    04:00 +6°C° 0 mm 4 m/S 723 mmHg 81%
    05:00 +6°C° 0,1 mm 4 m/S 723 mmHg 81%
    06:00 +7°C° 0,1 mm 5 m/S 723 mmHg 82%
    07:00 +7°C° 0,1 mm 5 m/S 723 mmHg 82%
    08:00 +7°C° 0,4 mm 5 m/S 723 mmHg 84%
    09:00 +7°C° 0,4 mm 5 m/S 723 mmHg 86%
    10:00 +7°C° 0,4 mm 5 m/S 723 mmHg 88%
    11:00 +8°C° 0,2 mm 5 m/S 724 mmHg 84%
    12:00 +9°C° 0,2 mm 6 m/S 724 mmHg 79%
    13:00 +10°C° 0,2 mm 6 m/S 724 mmHg 75%
    14:00 +11°C° 0,2 mm 6 m/S 724 mmHg 74%
    15:00 +12°C° 0,2 mm 5 m/S 724 mmHg 73%
    16:00 +12°C° 0,2 mm 5 m/S 724 mmHg 72%
    17:00 +12°C° 0,2 mm 5 m/S 724 mmHg 74%
    18:00 +12°C° 0,2 mm 5 m/S 725 mmHg 76%
    19:00 +10°C° 0,2 mm 5 m/S 725 mmHg 78%
    20:00 +10°C° 0 mm 4 m/S 725 mmHg 82%
    21:00 +9°C° 0 mm 3 m/S 725 mmHg 87%
    22:00 +8°C° 0 mm 3 m/S 725 mmHg 91%
    23:00 +7°C° 0 mm 3 m/S 725 mmHg 92%

    Morgen, 23 Juni, Samstag

    Zeit Temperatur Niederschläge Wind Luftdruck Luftfeuchtigkeit
    00:00 +7°C° 0 mm 3 m/S 725 mmHg 92%
    01:00 +5°C° 0 mm 3 m/S 725 mmHg 93%
    02:00 +6°C° 0 mm 2 m/S 725 mmHg 94%
    03:00 +5°C° 0 mm 2 m/S 725 mmHg 95%
    04:00 +5°C° 0 mm 2 m/S 725 mmHg 96%
    05:00 +5°C° 0 mm 3 m/S 725 mmHg 93%
    06:00 +7°C° 0 mm 3 m/S 725 mmHg 90%
    07:00 +8°C° 0 mm 3 m/S 726 mmHg 87%
    08:00 +9°C° 0,1 mm 3 m/S 726 mmHg 85%
    09:00 +8°C° 0,1 mm 4 m/S 726 mmHg 83%
    10:00 +10°C° 0,1 mm 4 m/S 726 mmHg 81%
    11:00 +11°C° 0,1 mm 4 m/S 726 mmHg 76%
    12:00 +12°C° 0,1 mm 4 m/S 726 mmHg 71%
    13:00 +13°C° 0,1 mm 4 m/S 726 mmHg 66%
    14:00 +13°C° 0,1 mm 4 m/S 725 mmHg 67%
    15:00 +13°C° 0,1 mm 4 m/S 725 mmHg 67%
    16:00 +14°C° 0,1 mm 4 m/S 725 mmHg 67%
    17:00 +13°C° 0,2 mm 3 m/S 725 mmHg 74%
    18:00 +12°C° 0,2 mm 3 m/S 725 mmHg 81%
    19:00 +12°C° 0,2 mm 2 m/S 724 mmHg 89%
    20:00 +12°C° 0,5 mm 2 m/S 724 mmHg 91%
    21:00 +11°C° 0,5 mm 1 m/S 724 mmHg 94%
    22:00 +10°C° 0,5 mm 1 m/S 725 mmHg 96%
    23:00 +10°C° 0,1 mm 1 m/S 724 mmHg 96%

    übermorgen, 24 Juni, Sonntag

    Zeit Temperatur Niederschläge Wind Luftdruck Luftfeuchtigkeit
    00:00 +9°C° 0,1 mm 1 m/S 724 mmHg 96%
    01:00 +9°C° 0,1 mm 1 m/S 724 mmHg 96%
    02:00 +9°C° 0 mm 1 m/S 724 mmHg 96%
    03:00 +8°C° 0 mm 1 m/S 723 mmHg 96%
    04:00 +8°C° 0 mm 1 m/S 723 mmHg 96%
    05:00 +8°C° 0 mm 1 m/S 723 mmHg 95%
    06:00 +8°C° 0 mm 2 m/S 723 mmHg 94%
    07:00 +9°C° 0 mm 2 m/S 724 mmHg 93%
    08:00 +10°C° 0 mm 2 m/S 724 mmHg 90%
    09:00 +10°C° 0 mm 2 m/S 724 mmHg 86%
    10:00 +12°C° 0 mm 2 m/S 724 mmHg 82%
    11:00 +13°C° 0,1 mm 2 m/S 724 mmHg 79%
    12:00 +14°C° 0,1 mm 2 m/S 724 mmHg 75%
    13:00 +14°C° 0,1 mm 3 m/S 724 mmHg 72%
    14:00 +14°C° 0,1 mm 3 m/S 724 mmHg 71%
    15:00 +14°C° 0,1 mm 3 m/S 724 mmHg 70%
    16:00 +16°C° 0,1 mm 3 m/S 724 mmHg 69%
    17:00 +14°C° 0,1 mm 3 m/S 724 mmHg 73%
    18:00 +13°C° 0,1 mm 3 m/S 723 mmHg 77%
    19:00 +13°C° 0,1 mm 3 m/S 723 mmHg 81%
    20:00 +13°C° 0 mm 2 m/S 723 mmHg 86%
    21:00 +12°C° 0 mm 2 m/S 723 mmHg 91%
    22:00 +11°C° 0 mm 1 m/S 724 mmHg 95%
    23:00 +11°C° 0 mm 1 m/S 723 mmHg 96%

    25 Juni, Montag

    Zeit Temperatur Niederschläge Wind Luftdruck Luftfeuchtigkeit
    00:00 +11°C° 0 mm 1 m/S 723 mmHg 96%
    01:00 +11°C° 0 mm 1 m/S 723 mmHg 97%
    02:00 +11°C° 0,1 mm 1 m/S 723 mmHg 97%
    03:00 +11°C° 0,1 mm 1 m/S 723 mmHg 96%
    04:00 +11°C° 0,1 mm 1 m/S 723 mmHg 96%
    05:00 +11°C° 0,1 mm 1 m/S 723 mmHg 94%
    06:00 +12°C° 0,1 mm 1 m/S 723 mmHg 92%
    07:00 +12°C° 0,1 mm 2 m/S 724 mmHg 90%
    08:00 +13°C° 0 mm 2 m/S 724 mmHg 83%
    09:00 +15°C° 0 mm 2 m/S 724 mmHg 75%
    10:00 +16°C° 0 mm 2 m/S 724 mmHg 68%
    11:00 +16°C° 0 mm 2 m/S 724 mmHg 68%
    12:00 +16°C° 0 mm 2 m/S 724 mmHg 68%
    13:00 +16°C° 0 mm 2 m/S 724 mmHg 67%
    14:00 +17°C° 0 mm 2 m/S 724 mmHg 66%
    15:00 +17°C° 0 mm 2 m/S 724 mmHg 65%
    16:00 +18°C° 0 mm 2 m/S 724 mmHg 63%
    17:00 +17°C° 0 mm 2 m/S 724 mmHg 67%
    18:00 +17°C° 0 mm 2 m/S 724 mmHg 71%
    19:00 +17°C° 0 mm 2 m/S 724 mmHg 74%
    20:00 +15°C° 0 mm 1 m/S 724 mmHg 80%
    21:00 +13°C° 0 mm 1 m/S 724 mmHg 87%
    22:00 +11°C° 0 mm 1 m/S 724 mmHg 93%
    23:00 +11°C° 0 mm 1 m/S 724 mmHg 94%

    26 Juni, Dienstag

    Zeit Temperatur Niederschläge Wind Luftdruck Luftfeuchtigkeit
    00:00 +11°C° 0 mm 1 m/S 724 mmHg 94%
    01:00 +10°C° 0 mm 1 m/S 724 mmHg 95%
    02:00 +10°C° 0 mm 1 m/S 724 mmHg 95%
    03:00 +10°C° 0 mm 1 m/S 724 mmHg 95%
    04:00 +9°C° 0 mm 1 m/S 724 mmHg 95%
    05:00 +11°C° 0 mm 1 m/S 724 mmHg 91%
    06:00 +13°C° 0 mm 1 m/S 724 mmHg 88%
    07:00 +13°C° 0 mm 0 m/S 724 mmHg 84%
    08:00 +16°C° 0 mm 1 m/S 725 mmHg 75%
    09:00 +19°C° 0 mm 1 m/S 725 mmHg 66%
    10:00 +22°C° 0 mm 1 m/S 725 mmHg 57%
    11:00 +23°C° 0 mm 1 m/S 725 mmHg 54%
    12:00 +23°C° 0 mm 1 m/S 725 mmHg 50%
    13:00 +24°C° 0 mm 2 m/S 725 mmHg 47%
    14:00 +24°C° 0 mm 2 m/S 724 mmHg 49%
    15:00 +24°C° 0 mm 2 m/S 724 mmHg 51%
    16:00 +24°C° 0 mm 2 m/S 724 mmHg 53%
    17:00 +23°C° 0,1 mm 2 m/S 724 mmHg 60%
    18:00 +21°C° 0,1 mm 2 m/S 724 mmHg 66%
    19:00 +20°C° 0,1 mm 2 m/S 724 mmHg 73%
    20:00 +18°C° 0 mm 2 m/S 724 mmHg 78%
    21:00 +16°C° 0 mm 1 m/S 724 mmHg 84%
    22:00 +15°C° 0 mm 1 m/S 724 mmHg 90%
    23:00 +14°C° 0 mm 1 m/S 724 mmHg 90%

    27 Juni, Mittwoch

    Zeit Temperatur Niederschläge Wind Luftdruck Luftfeuchtigkeit
    00:00 +14°C° 0 mm 1 m/S 724 mmHg 91%
    01:00 +13°C° 0 mm 1 m/S 724 mmHg 91%
    02:00 +13°C° 0 mm 1 m/S 724 mmHg 91%
    03:00 +13°C° 0 mm 1 m/S 724 mmHg 92%
    04:00 +12°C° 0 mm 1 m/S 724 mmHg 92%
    05:00 +14°C° 0 mm 1 m/S 724 mmHg 87%
    06:00 +16°C° 0 mm 1 m/S 724 mmHg 82%
    07:00 +18°C° 0 mm 1 m/S 725 mmHg 77%
    08:00 +19°C° 0 mm 2 m/S 725 mmHg 69%
    09:00 +20°C° 0 mm 2 m/S 725 mmHg 62%
    10:00 +22°C° 0 mm 3 m/S 725 mmHg 55%
    11:00 +24°C° 0 mm 3 m/S 725 mmHg 52%
    12:00 +25°C° 0 mm 3 m/S 725 mmHg 50%
    13:00 +25°C° 0 mm 4 m/S 725 mmHg 47%
    14:00 +26°C° 0 mm 4 m/S 724 mmHg 48%
    15:00 +26°C° 0 mm 4 m/S 724 mmHg 50%
    16:00 +26°C° 0 mm 4 m/S 724 mmHg 51%
    17:00 +25°C° 0 mm 3 m/S 724 mmHg 57%
    18:00 +24°C° 0 mm 3 m/S 724 mmHg 63%
    19:00 +23°C° 0 mm 2 m/S 724 mmHg 70%
    20:00 +20°C° 0 mm 2 m/S 724 mmHg 75%
    21:00 +18°C° 0 mm 2 m/S 724 mmHg 81%
    22:00 +16°C° 0 mm 2 m/S 724 mmHg 86%
    23:00 +16°C° 0 mm 2 m/S 724 mmHg 88%
    Mehr zeigen